TimeCDT,TemperatureF,Dew PointF,Humidity,Sea Level PressureIn,VisibilityMPH,Wind Direction,Wind SpeedMPH,Gust SpeedMPH,PrecipitationIn,Events,Conditions,WindDirDegrees,DateUTC
12:33 AM,41.0,41.0,100,30.13,3.0,SE,4.6,-,N/A,,Clear,130,2013-10-10 05:33:00
12:38 AM,41.0,41.0,100,30.13,2.5,ESE,4.6,-,N/A,,Clear,120,2013-10-10 05:38:00
12:43 AM,41.0,41.0,100,30.12,5.0,ESE,5.8,-,N/A,,Clear,120,2013-10-10 05:43:00
12:48 AM,39.2,39.2,100,30.13,6.0,SE,5.8,-,N/A,,Clear,140,2013-10-10 05:48:00
12:58 AM,41.2,41.2,100,30.14,10.0,SSE,4.6,-,N/A,,Clear,150,2013-10-10 05:58:00
1:18 AM,39.2,39.2,100,30.12,6.0,SE,4.6,-,N/A,,Clear,130,2013-10-10 06:18:00
1:28 AM,39.2,39.2,100,30.12,1.2,SE,4.6,-,N/A,,Clear,140,2013-10-10 06:28:00
1:33 AM,39.2,39.2,100,30.12,1.0,SE,5.8,-,N/A,,Clear,130,2013-10-10 06:33:00
1:38 AM,39.2,39.2,100,30.12,2.0,SE,5.8,-,N/A,,Clear,140,2013-10-10 06:38:00
1:43 AM,39.2,39.2,100,30.12,4.0,SE,5.8,-,N/A,,Clear,140,2013-10-10 06:43:00
1:48 AM,39.2,39.2,100,30.12,10.0,SE,4.6,-,N/A,,Clear,140,2013-10-10 06:48:00
1:58 AM,37.6,37.6,100,30.15,10.0,SSE,4.6,-,N/A,,Clear,150,2013-10-10 06:58:00
2:18 AM,37.4,37.4,100,30.13,5.0,East,3.5,-,N/A,,Clear,90,2013-10-10 07:18:00
2:33 AM,37.4,37.4,100,30.12,3.0,ENE,1.2,-,N/A,,Clear,60,2013-10-10 07:33:00
2:38 AM,39.2,39.2,100,30.12,2.0,ENE,2.3,-,N/A,,Clear,70,2013-10-10 07:38:00
2:53 AM,37.4,37.4,100,30.12,2.5,ENE,1.2,-,N/A,,Clear,60,2013-10-10 07:53:00
2:58 AM,37.4,37.4,100,30.14,2.0,East,2.3,-,N/A,,Clear,80,2013-10-10 07:58:00
3:03 AM,35.6,35.6,100,30.12,1.0,NE,2.3,-,N/A,,Clear,50,2013-10-10 08:03:00
3:08 AM,37.4,37.4,100,30.12,1.0,NE,2.3,-,N/A,,Clear,50,2013-10-10 08:08:00
3:13 AM,37.4,37.4,100,30.12,1.8,NE,1.2,-,N/A,,Clear,50,2013-10-10 08:13:00
3:18 AM,37.4,37.4,100,30.12,4.0,NE,1.2,-,N/A,,Clear,50,2013-10-10 08:18:00
3:23 AM,37.4,37.4,100,30.12,4.0,Calm,Calm,-,N/A,,Clear,0,2013-10-10 08:23:00
3:33 AM,37.4,37.4,100,30.12,3.0,NE,1.2,-,N/A,,Clear,40,2013-10-10 08:33:00
3:38 AM,37.4,37.4,100,30.12,1.8,East,2.3,-,N/A,,Clear,100,2013-10-10 08:38:00
3:43 AM,37.4,37.4,100,30.12,1.2,East,2.3,-,N/A,,Clear,90,2013-10-10 08:43:00
3:48 AM,37.4,37.4,100,30.12,1.0,Calm,Calm,-,N/A,,Clear,0,2013-10-10 08:48:00
3:58 AM,35.6,35.6,100,30.14,1.2,East,1.2,-,N/A,,Clear,100,2013-10-10 08:58:00
4:03 AM,37.4,37.4,100,30.12,1.5,East,2.3,-,N/A,,Clear,90,2013-10-10 09:03:00
4:08 AM,35.6,35.6,100,30.12,0.8,East,2.3,-,N/A,,Clear,90,2013-10-10 09:08:00
4:13 AM,37.4,37.4,100,30.12,1.0,East,3.5,-,N/A,,Clear,90,2013-10-10 09:13:00
4:18 AM,37.4,37.4,100,30.12,1.2,ENE,2.3,-,N/A,,Clear,70,2013-10-10 09:18:00
4:23 AM,37.4,37.4,100,30.12,1.0,NE,2.3,-,N/A,,Clear,50,2013-10-10 09:23:00
4:28 AM,37.4,37.4,100,30.13,1.5,Calm,Calm,-,N/A,,Clear,0,2013-10-10 09:28:00
4:33 AM,37.4,37.4,100,30.13,3.0,Calm,Calm,-,N/A,,Clear,0,2013-10-10 09:33:00
4:38 AM,37.4,37.4,100,30.13,2.0,Calm,Calm,-,N/A,,Clear,0,2013-10-10 09:38:00
4:48 AM,35.6,35.6,100,30.14,1.2,Calm,Calm,-,N/A,,Clear,0,2013-10-10 09:48:00
4:53 AM,35.6,35.6,100,30.14,1.5,Calm,Calm,-,N/A,,Clear,0,2013-10-10 09:53:00
4:58 AM,37.4,37.4,100,30.16,4.0,Calm,Calm,-,N/A,,Clear,0,2013-10-10 09:58:00
5:03 AM,37.4,37.4,100,30.14,10.0,Calm,Calm,-,N/A,,Clear,0,2013-10-10 10:03:00
5:43 AM,37.4,37.4,100,30.14,9.0,East,4.6,-,N/A,,Clear,90,2013-10-10 10:43:00
5:48 AM,37.4,37.4,100,30.14,10.0,East,4.6,-,N/A,,Clear,100,2013-10-10 10:48:00
5:53 AM,35.6,35.6,100,30.14,7.0,East,3.5,-,N/A,,Clear,90,2013-10-10 10:53:00
5:58 AM,35.6,35.6,100,30.16,6.0,East,3.5,-,N/A,,Clear,90,2013-10-10 10:58:00
6:13 AM,35.6,35.6,100,30.14,8.0,East,3.5,-,N/A,,Clear,100,2013-10-10 11:13:00
6:23 AM,35.6,35.6,100,30.14,10.0,East,3.5,-,N/A,,Clear,100,2013-10-10 11:23:00
6:58 AM,37.4,37.4,100,30.16,10.0,East,5.8,-,N/A,,Scattered Clouds,90,2013-10-10 11:58:00
7:58 AM,41.0,41.0,100,30.17,10.0,Calm,Calm,-,N/A,,Mostly Cloudy,0,2013-10-10 12:58:00
8:58 AM,48.2,48.2,100,30.17,10.0,East,2.3,-,N/A,,Mostly Cloudy,80,2013-10-10 13:58:00
9:58 AM,57.2,50.0,77,30.17,10.0,SE,4.6,-,N/A,,Mostly Cloudy,140,2013-10-10 14:58:00
10:58 AM,62.6,51.8,68,30.15,10.0,SSE,4.6,-,N/A,,Mostly Cloudy,150,2013-10-10 15:58:00
11:58 AM,68.0,50.0,52,30.13,10.0,SE,6.9,-,N/A,,Mostly Cloudy,140,2013-10-10 16:58:00
12:58 PM,69.8,48.2,46,30.10,10.0,SSE,8.1,-,N/A,,Mostly Cloudy,160,2013-10-10 17:58:00
1:58 PM,71.6,48.2,43,30.09,10.0,SSE,6.9,-,N/A,,Mostly Cloudy,160,2013-10-10 18:58:00
2:55 PM,73.4,46.4,38,30.07,10.0,South,10.4,-,N/A,,Scattered Clouds,170,2013-10-10 19:55:00
3:58 PM,72.7,47.7,41,30.06,10.0,SSE,10.4,16.1,N/A,,Clear,150,2013-10-10 20:58:00
4:58 PM,72.1,49.3,44,30.05,10.0,SSE,6.9,-,N/A,,Clear,150,2013-10-10 21:58:00
5:58 PM,67.6,49.8,53,30.05,10.0,SE,5.8,-,N/A,,Clear,140,2013-10-10 22:58:00
6:58 PM,53.1,48.0,83,30.05,10.0,SE,8.1,-,N/A,,Clear,130,2013-10-10 23:58:00
7:58 PM,49.6,48.7,97,30.05,10.0,SE,3.5,-,N/A,,Clear,130,2013-10-11 00:58:00
8:58 PM,47.8,47.1,97,30.04,10.0,Calm,Calm,-,N/A,,Clear,0,2013-10-11 01:58:00
9:58 PM,46.4,46.4,100,30.04,10.0,Variable,1.2,-,N/A,,Clear,0,2013-10-11 02:58:00
10:58 PM,44.6,44.6,100,30.04,7.0,Calm,Calm,-,N/A,,Clear,0,2013-10-11 03:58:00
11:58 PM,43.7,43.7,100,30.04,10.0,SE,6.9,-,N/A,,Clear,140,2013-10-11 04:58:00